Time,TemperatureF,DewpointF,PressureIn,WindDirection,WindDirectionDegrees,WindSpeedMPH,WindSpeedGustMPH,Humidity,HourlyPrecipIn,Conditions,Clouds,dailyrainin,SoftwareType,DateUTC
2013-05-13 00:01:00,45.2,35.0,29.15,NE,45,1.9,2.3,66,15.36,,,0.00,Rainwise IP-100,2013-05-13 05:01:00,
2013-05-13 00:06:00,45.6,33.0,29.15,NE,45,0.0,2.6,62,0.00,,,0.00,Rainwise IP-100,2013-05-13 05:06:00,
2013-05-13 00:11:00,45.4,33.0,29.15,NE,45,1.6,2.3,62,46.08,,,7.68,Rainwise IP-100,2013-05-13 05:11:00,
2013-05-13 00:16:00,45.1,35.0,29.16,NE,45,1.6,1.9,65,46.08,,,7.68,Rainwise IP-100,2013-05-13 05:16:00,
2013-05-13 00:21:00,45.0,35.0,29.16,NE,45,0.0,1.6,67,0.00,,,7.68,Rainwise IP-100,2013-05-13 05:21:00,
2013-05-13 00:26:00,44.7,35.0,29.15,NE,45,1.4,1.4,68,0.00,,,7.68,Rainwise IP-100,2013-05-13 05:26:00,
2013-05-13 00:31:00,44.5,36.0,29.16,NE,45,0.0,2.1,71,61.44,,,17.92,Rainwise IP-100,2013-05-13 05:31:00,
2013-05-13 00:36:00,44.3,36.0,29.15,NE,45,0.0,2.1,73,99.99,,,30.72,Rainwise IP-100,2013-05-13 05:36:00,
2013-05-13 00:41:00,44.3,36.0,29.15,NE,45,1.4,2.6,72,99.99,,,46.08,Rainwise IP-100,2013-05-13 05:41:00,
2013-05-13 00:46:00,44.7,36.0,29.15,NE,45,1.2,2.3,69,92.16,,,46.08,Rainwise IP-100,2013-05-13 05:46:00,
2013-05-13 00:51:00,44.8,35.0,29.15,NE,45,1.4,1.6,67,15.36,,,48.64,Rainwise IP-100,2013-05-13 05:51:00,
2013-05-13 00:56:00,44.7,33.0,29.15,NE,45,1.4,2.6,64,61.44,,,56.32,Rainwise IP-100,2013-05-13 05:56:00,
2013-05-13 01:01:00,45.0,32.0,29.15,NE,45,1.2,3.0,61,99.99,,,71.68,Rainwise IP-100,2013-05-13 06:01:00,
2013-05-13 01:06:00,45.1,32.0,29.15,NE,45,0.0,3.0,60,99.99,,,74.24,Rainwise IP-100,2013-05-13 06:06:00,
2013-05-13 01:11:00,44.8,33.0,29.15,East,90,0.0,2.6,62,46.08,,,76.80,Rainwise IP-100,2013-05-13 06:11:00,
2013-05-13 01:16:00,44.3,33.0,29.15,East,90,0.0,0.0,65,15.36,,,76.80,Rainwise IP-100,2013-05-13 06:16:00,
2013-05-13 01:21:00,43.9,33.0,29.15,East,90,0.0,0.0,66,0.00,,,76.80,Rainwise IP-100,2013-05-13 06:21:00,
2013-05-13 01:26:00,43.9,33.0,29.15,East,90,0.0,0.0,67,0.00,,,76.80,Rainwise IP-100,2013-05-13 06:26:00,
2013-05-13 01:31:00,44.2,35.0,29.15,East,90,0.0,1.4,69,0.00,,,76.80,Rainwise IP-100,2013-05-13 06:31:00,
2013-05-13 01:36:00,44.3,36.0,29.15,East,90,0.0,1.2,71,0.00,,,76.80,Rainwise IP-100,2013-05-13 06:36:00,
2013-05-13 01:41:00,43.8,36.0,29.15,East,90,0.0,0.0,74,0.00,,,76.80,Rainwise IP-100,2013-05-13 06:41:00,
2013-05-13 01:46:00,43.5,36.0,29.15,East,90,0.0,0.0,74,0.00,,,76.80,Rainwise IP-100,2013-05-13 06:46:00,
2013-05-13 01:51:00,43.8,35.0,29.14,East,90,2.3,2.3,70,0.00,,,76.80,Rainwise IP-100,2013-05-13 06:51:00,
2013-05-13 01:56:00,44.5,35.0,29.15,SE,135,1.4,2.6,67,0.00,,,76.80,Rainwise IP-100,2013-05-13 06:56:00,
2013-05-13 02:01:00,44.8,35.0,29.15,SE,135,2.1,2.1,65,0.00,,,76.80,Rainwise IP-100,2013-05-13 07:01:00,
2013-05-13 02:06:00,44.8,33.0,29.14,SE,135,1.9,2.3,64,0.00,,,76.80,Rainwise IP-100,2013-05-13 07:06:00,
2013-05-13 02:11:00,44.8,33.0,29.15,SE,135,0.0,2.3,62,0.00,,,76.80,Rainwise IP-100,2013-05-13 07:11:00,
2013-05-13 02:16:00,44.5,33.0,29.14,SE,135,0.0,0.0,63,0.00,,,76.80,Rainwise IP-100,2013-05-13 07:16:00,
2013-05-13 02:21:00,44.3,33.0,29.14,SE,135,0.0,0.0,65,0.00,,,76.80,Rainwise IP-100,2013-05-13 07:21:00,
2013-05-13 02:26:00,44.7,33.0,29.14,SE,135,1.6,1.9,63,0.00,,,76.80,Rainwise IP-100,2013-05-13 07:26:00,
2013-05-13 02:31:00,45.0,32.0,29.14,SE,135,1.2,2.1,60,0.00,,,76.80,Rainwise IP-100,2013-05-13 07:31:00,
2013-05-13 02:36:00,44.8,31.0,29.14,SE,135,2.3,2.6,58,0.00,,,76.80,Rainwise IP-100,2013-05-13 07:36:00,
2013-05-13 02:41:00,45.0,31.0,29.14,SSE,157,2.6,5.6,57,0.00,,,76.80,Rainwise IP-100,2013-05-13 07:41:00,
2013-05-13 02:46:00,45.5,31.0,29.14,SE,135,4.2,4.9,54,0.00,,,76.80,Rainwise IP-100,2013-05-13 07:46:00,
2013-05-13 02:51:00,45.6,29.0,29.13,SE,135,5.4,5.8,53,0.00,,,79.36,Rainwise IP-100,2013-05-13 07:51:00,
2013-05-13 02:56:00,45.7,29.0,29.14,South,180,1.4,6.1,52,30.72,,,81.92,Rainwise IP-100,2013-05-13 07:56:00,
2013-05-13 03:01:00,45.5,29.0,29.14,NNW,337,0.0,4.4,52,30.72,,,81.92,Rainwise IP-100,2013-05-13 08:01:00,
2013-05-13 03:06:00,45.1,29.0,29.14,SSE,157,4.0,4.0,52,0.00,,,81.92,Rainwise IP-100,2013-05-13 08:06:00,
2013-05-13 03:11:00,45.3,28.0,29.14,SSE,157,3.5,5.1,49,0.00,,,81.92,Rainwise IP-100,2013-05-13 08:11:00,
2013-05-13 03:16:00,45.4,26.0,29.14,SSE,157,1.6,4.4,48,0.00,,,81.92,Rainwise IP-100,2013-05-13 08:16:00,
2013-05-13 03:21:00,45.1,26.0,29.13,SSE,157,0.0,4.4,48,0.00,,,81.92,Rainwise IP-100,2013-05-13 08:21:00,
2013-05-13 03:26:00,44.9,26.0,29.14,SSE,157,0.0,4.2,48,0.00,,,81.92,Rainwise IP-100,2013-05-13 08:26:00,
2013-05-13 03:31:00,44.8,28.0,29.13,SE,135,4.2,4.2,50,0.00,,,81.92,Rainwise IP-100,2013-05-13 08:31:00,
2013-05-13 03:36:00,44.9,28.0,29.13,SSE,157,0.0,4.9,50,0.00,,,81.92,Rainwise IP-100,2013-05-13 08:36:00,
2013-05-13 03:41:00,44.9,28.0,29.13,WNW,292,0.0,3.3,51,0.00,,,81.92,Rainwise IP-100,2013-05-13 08:41:00,
2013-05-13 03:46:00,44.7,28.0,29.13,SSE,157,1.6,4.7,51,0.00,,,81.92,Rainwise IP-100,2013-05-13 08:46:00,
2013-05-13 03:51:00,44.8,28.0,29.13,SSE,157,2.8,4.0,51,0.00,,,81.92,Rainwise IP-100,2013-05-13 08:51:00,
2013-05-13 03:56:00,44.8,28.0,29.13,SSE,157,2.6,4.0,51,0.00,,,81.92,Rainwise IP-100,2013-05-13 08:56:00,
2013-05-13 04:01:00,44.6,29.0,29.12,SSE,157,2.8,3.7,52,0.00,,,81.92,Rainwise IP-100,2013-05-13 09:01:00,
2013-05-13 04:06:00,44.7,29.0,29.12,SSE,157,0.0,4.4,52,0.00,,,81.92,Rainwise IP-100,2013-05-13 09:06:00,
2013-05-13 04:11:00,44.7,29.0,29.12,SSE,157,2.3,3.7,52,0.00,,,81.92,Rainwise IP-100,2013-05-13 09:11:00,
2013-05-13 04:16:00,44.7,28.0,29.12,SSE,157,4.2,6.5,50,0.00,,,81.92,Rainwise IP-100,2013-05-13 09:16:00,
2013-05-13 04:21:00,44.8,28.0,29.12,SE,135,1.2,5.1,49,0.00,,,81.92,Rainwise IP-100,2013-05-13 09:21:00,
2013-05-13 04:26:00,44.7,28.0,29.12,SSE,157,4.0,4.4,49,0.00,,,81.92,Rainwise IP-100,2013-05-13 09:26:00,
2013-05-13 04:31:00,44.6,28.0,29.12,SSE,157,1.6,4.0,49,0.00,,,81.92,Rainwise IP-100,2013-05-13 09:31:00,
2013-05-13 04:36:00,44.3,28.0,29.12,SE,135,1.2,3.7,50,0.00,,,81.92,Rainwise IP-100,2013-05-13 09:36:00,
2013-05-13 04:41:00,44.1,28.0,29.12,SSE,157,0.0,4.2,50,0.00,,,81.92,Rainwise IP-100,2013-05-13 09:41:00,
2013-05-13 04:46:00,43.9,28.0,29.12,East,90,0.0,3.3,50,0.00,,,81.92,Rainwise IP-100,2013-05-13 09:46:00,
2013-05-13 04:51:00,43.8,28.0,29.12,SSE,157,0.0,2.8,51,0.00,,,81.92,Rainwise IP-100,2013-05-13 09:51:00,
2013-05-13 04:56:00,43.6,28.0,29.12,ENE,67,0.0,2.6,52,0.00,,,81.92,Rainwise IP-100,2013-05-13 09:56:00,
2013-05-13 05:01:00,43.6,28.0,29.12,SSE,157,3.3,5.4,52,15.36,,,84.48,Rainwise IP-100,2013-05-13 10:01:00,
2013-05-13 05:06:00,43.7,28.0,29.12,ESE,112,2.8,4.0,51,15.36,,,84.48,Rainwise IP-100,2013-05-13 10:06:00,
2013-05-13 05:11:00,43.8,28.0,29.12,South,180,0.0,4.9,50,0.00,,,84.48,Rainwise IP-100,2013-05-13 10:11:00,
2013-05-13 05:16:00,43.7,26.0,29.12,SSE,157,2.6,4.4,48,0.00,,,84.48,Rainwise IP-100,2013-05-13 10:16:00,
2013-05-13 05:21:00,43.8,26.0,29.12,SE,135,1.4,4.2,49,0.00,,,84.48,Rainwise IP-100,2013-05-13 10:21:00,
2013-05-13 05:26:00,43.9,28.0,29.13,WSW,247,0.0,3.7,50,0.00,,,84.48,Rainwise IP-100,2013-05-13 10:26:00,
2013-05-13 05:31:00,43.9,28.0,29.13,East,90,0.0,2.6,51,0.00,,,84.48,Rainwise IP-100,2013-05-13 10:31:00,
2013-05-13 05:36:00,43.8,26.0,29.12,South,180,0.0,4.0,49,0.00,,,84.48,Rainwise IP-100,2013-05-13 10:36:00,
2013-05-13 05:41:00,43.9,26.0,29.13,SSE,157,4.4,4.7,47,0.00,,,84.48,Rainwise IP-100,2013-05-13 10:41:00,
2013-05-13 05:46:00,44.2,26.0,29.13,ESE,112,1.9,4.7,47,0.00,,,84.48,Rainwise IP-100,2013-05-13 10:46:00,
2013-05-13 05:51:00,44.4,24.0,29.13,SE,135,4.0,5.1,46,0.00,,,84.48,Rainwise IP-100,2013-05-13 10:51:00,
2013-05-13 05:56:00,44.5,26.0,29.13,ESE,112,0.0,4.7,47,0.00,,,84.48,Rainwise IP-100,2013-05-13 10:56:00,
2013-05-13 06:01:00,44.6,26.0,29.13,NNE,22,0.0,3.0,47,0.00,,,84.48,Rainwise IP-100,2013-05-13 11:01:00,
2013-05-13 06:06:00,44.6,26.0,29.12,SSE,157,0.0,1.6,48,0.00,,,84.48,Rainwise IP-100,2013-05-13 11:06:00,
2013-05-13 06:11:00,44.6,26.0,29.12,SE,135,0.0,2.8,48,0.00,,,84.48,Rainwise IP-100,2013-05-13 11:11:00,
2013-05-13 06:16:00,44.5,26.0,29.13,SE,135,1.2,4.9,48,0.00,,,84.48,Rainwise IP-100,2013-05-13 11:16:00,
2013-05-13 06:21:00,44.3,26.0,29.12,SSE,157,0.0,4.9,48,0.00,,,84.48,Rainwise IP-100,2013-05-13 11:21:00,
2013-05-13 06:26:00,44.2,26.0,29.12,NNE,22,0.0,4.9,48,0.00,,,84.48,Rainwise IP-100,2013-05-13 11:26:00,
2013-05-13 06:31:00,44.2,26.0,29.12,SSE,157,2.8,4.7,49,0.00,,,84.48,Rainwise IP-100,2013-05-13 11:31:00,
2013-05-13 06:36:00,44.2,26.0,29.12,ESE,112,0.0,4.4,49,0.00,,,84.48,Rainwise IP-100,2013-05-13 11:36:00,
2013-05-13 06:41:00,44.3,26.0,29.13,South,180,0.0,2.8,49,0.00,,,84.48,Rainwise IP-100,2013-05-13 11:41:00,
2013-05-13 06:46:00,44.3,28.0,29.13,South,180,0.0,1.2,50,0.00,,,84.48,Rainwise IP-100,2013-05-13 11:46:00,
2013-05-13 06:51:00,44.3,28.0,29.13,SSE,157,0.0,2.1,50,0.00,,,84.48,Rainwise IP-100,2013-05-13 11:51:00,
2013-05-13 06:56:00,44.4,28.0,29.13,SSE,157,0.0,3.0,50,0.00,,,84.48,Rainwise IP-100,2013-05-13 11:56:00,
2013-05-13 07:01:00,44.6,28.0,29.13,SSE,157,3.0,3.3,51,0.00,,,84.48,Rainwise IP-100,2013-05-13 12:01:00,
2013-05-13 07:06:00,44.7,28.0,29.13,SSE,157,0.0,3.5,50,0.00,,,84.48,Rainwise IP-100,2013-05-13 12:06:00,
2013-05-13 07:11:00,44.9,28.0,29.14,SSE,157,2.3,3.3,49,0.00,,,84.48,Rainwise IP-100,2013-05-13 12:11:00,
2013-05-13 07:16:00,45.1,26.0,29.14,SE,135,0.0,3.0,48,0.00,,,84.48,Rainwise IP-100,2013-05-13 12:16:00,
2013-05-13 07:21:00,45.3,26.0,29.14,SE,135,1.2,3.5,48,0.00,,,84.48,Rainwise IP-100,2013-05-13 12:21:00,
2013-05-13 07:26:00,45.5,29.0,29.13,SE,135,2.1,4.2,50,0.00,,,84.48,Rainwise IP-100,2013-05-13 12:26:00,
2013-05-13 07:31:00,45.5,29.0,29.14,SE,135,4.4,5.4,51,0.00,,,84.48,Rainwise IP-100,2013-05-13 12:31:00,
2013-05-13 07:36:00,45.6,29.0,29.13,SE,135,5.4,6.3,50,0.00,,,87.04,Rainwise IP-100,2013-05-13 12:36:00,
2013-05-13 07:41:00,45.7,29.0,29.13,ESE,112,4.0,7.0,50,30.72,,,89.60,Rainwise IP-100,2013-05-13 12:41:00,
2013-05-13 07:46:00,45.9,29.0,29.13,SSE,157,3.3,9.3,50,30.72,,,89.60,Rainwise IP-100,2013-05-13 12:46:00,
2013-05-13 07:51:00,46.2,28.0,29.13,SSW,202,1.9,6.3,49,0.00,,,89.60,Rainwise IP-100,2013-05-13 12:51:00,
2013-05-13 07:56:00,46.3,28.0,29.13,SE,135,1.2,6.1,48,0.00,,,89.60,Rainwise IP-100,2013-05-13 12:56:00,
2013-05-13 08:01:00,46.6,28.0,29.13,East,90,1.6,10.3,48,30.72,,,94.72,Rainwise IP-100,2013-05-13 13:01:00,
2013-05-13 08:06:00,46.9,28.0,29.13,SSE,157,3.7,5.6,48,30.72,,,94.72,Rainwise IP-100,2013-05-13 13:06:00,
2013-05-13 08:11:00,47.2,28.0,29.13,SE,135,1.4,5.6,48,0.00,,,94.72,Rainwise IP-100,2013-05-13 13:11:00,
2013-05-13 08:16:00,47.5,29.0,29.13,SSE,157,1.6,4.4,47,0.00,,,94.72,Rainwise IP-100,2013-05-13 13:16:00,
2013-05-13 08:21:00,48.0,29.0,29.13,SE,135,2.3,4.4,47,0.00,,,94.72,Rainwise IP-100,2013-05-13 13:21:00,
2013-05-13 08:26:00,48.7,29.0,29.13,ESE,112,1.4,4.9,46,0.00,,,94.72,Rainwise IP-100,2013-05-13 13:26:00,
2013-05-13 08:31:00,49.3,29.0,29.13,South,180,0.0,4.9,45,0.00,,,94.72,Rainwise IP-100,2013-05-13 13:31:00,
2013-05-13 08:36:00,49.7,29.0,29.13,SSE,157,3.5,3.5,44,0.00,,,94.72,Rainwise IP-100,2013-05-13 13:36:00,
2013-05-13 08:41:00,50.1,29.0,29.13,WSW,247,0.0,4.4,44,0.00,,,94.72,Rainwise IP-100,2013-05-13 13:41:00,
2013-05-13 08:46:00,50.6,29.0,29.13,ESE,112,0.0,4.2,43,0.00,,,94.72,Rainwise IP-100,2013-05-13 13:46:00,
2013-05-13 08:51:00,51.3,29.0,29.13,South,180,0.0,3.5,43,0.00,,,94.72,Rainwise IP-100,2013-05-13 13:51:00,
2013-05-13 08:56:00,52.1,31.0,29.13,SE,135,0.0,3.0,43,0.00,,,94.72,Rainwise IP-100,2013-05-13 13:56:00,
2013-05-13 09:01:00,52.7,31.0,29.12,SE,135,0.0,3.7,43,0.00,,,94.72,Rainwise IP-100,2013-05-13 14:01:00,
2013-05-13 09:06:00,53.2,31.0,29.12,SSE,157,5.6,5.6,43,0.00,,,94.72,Rainwise IP-100,2013-05-13 14:06:00,
2013-05-13 09:11:00,53.4,31.0,29.12,SE,135,1.4,5.8,41,0.00,,,94.72,Rainwise IP-100,2013-05-13 14:11:00,
2013-05-13 09:16:00,53.5,29.0,29.12,SE,135,0.0,4.7,40,0.00,,,94.72,Rainwise IP-100,2013-05-13 14:16:00,
2013-05-13 09:21:00,53.8,31.0,29.11,SSE,157,1.6,5.1,40,0.00,,,94.72,Rainwise IP-100,2013-05-13 14:21:00,
2013-05-13 09:26:00,53.6,31.0,29.11,ESE,112,0.0,8.2,41,0.00,,,94.72,Rainwise IP-100,2013-05-13 14:26:00,
2013-05-13 09:31:00,52.8,31.0,29.10,SE,135,7.5,9.6,42,0.00,,,94.72,Rainwise IP-100,2013-05-13 14:31:00,
2013-05-13 09:36:00,52.7,31.0,29.10,SE,135,7.7,9.1,42,0.00,,,94.72,Rainwise IP-100,2013-05-13 14:36:00,
2013-05-13 09:41:00,53.2,31.0,29.09,SSW,202,3.0,11.0,42,0.00,,,94.72,Rainwise IP-100,2013-05-13 14:41:00,
2013-05-13 09:46:00,53.8,29.0,29.09,SE,135,6.5,10.7,39,0.00,,,94.72,Rainwise IP-100,2013-05-13 14:46:00,
2013-05-13 09:51:00,54.0,29.0,29.09,SSE,157,7.0,9.6,39,0.00,,,94.72,Rainwise IP-100,2013-05-13 14:51:00,
2013-05-13 09:56:00,54.2,31.0,29.09,SE,135,9.6,9.6,40,0.00,,,94.72,Rainwise IP-100,2013-05-13 14:56:00,
2013-05-13 10:01:00,54.5,31.0,29.08,ESE,112,2.3,13.5,39,30.72,,,99.84,Rainwise IP-100,2013-05-13 15:01:00,
2013-05-13 10:06:00,54.3,31.0,29.07,SSE,157,13.3,13.3,39,30.72,,,99.99,Rainwise IP-100,2013-05-13 15:06:00,
2013-05-13 10:11:00,54.7,31.0,29.08,SSE,157,0.0,13.3,39,30.72,,,99.99,Rainwise IP-100,2013-05-13 15:11:00,
2013-05-13 10:16:00,54.8,31.0,29.08,SE,135,6.5,8.6,39,30.72,,,99.99,Rainwise IP-100,2013-05-13 15:16:00,
2013-05-13 10:21:00,54.9,31.0,29.08,SSE,157,5.8,8.4,39,0.00,,,99.99,Rainwise IP-100,2013-05-13 15:21:00,
2013-05-13 10:26:00,55.0,31.0,29.07,SSE,157,1.4,10.0,39,0.00,,,99.99,Rainwise IP-100,2013-05-13 15:26:00,
2013-05-13 10:31:00,55.3,31.0,29.08,ESE,112,4.4,11.2,38,0.00,,,99.99,Rainwise IP-100,2013-05-13 15:31:00,
2013-05-13 10:36:00,55.6,31.0,29.07,SSE,157,4.4,11.0,37,0.00,,,99.99,Rainwise IP-100,2013-05-13 15:36:00,
2013-05-13 10:41:00,55.9,31.0,29.07,SSE,157,9.8,11.4,37,0.00,,,99.99,Rainwise IP-100,2013-05-13 15:41:00,
2013-05-13 10:46:00,56.0,29.0,29.06,SE,135,12.6,14.7,36,0.00,,,99.99,Rainwise IP-100,2013-05-13 15:46:00,
2013-05-13 10:51:00,56.1,29.0,29.06,South,180,8.2,15.2,35,0.00,,,99.99,Rainwise IP-100,2013-05-13 15:51:00,
2013-05-13 10:56:00,56.1,29.0,29.07,SSE,157,8.6,11.7,35,0.00,,,99.99,Rainwise IP-100,2013-05-13 15:56:00,
2013-05-13 11:01:00,56.1,29.0,29.06,South,180,11.4,11.4,35,0.00,,,99.99,Rainwise IP-100,2013-05-13 16:01:00,
2013-05-13 11:06:00,56.1,29.0,29.06,SSE,157,8.6,13.8,36,0.00,,,99.99,Rainwise IP-100,2013-05-13 16:06:00,
2013-05-13 11:11:00,55.9,31.0,29.05,SE,135,8.6,12.1,37,0.00,,,99.99,Rainwise IP-100,2013-05-13 16:11:00,
2013-05-13 11:16:00,56.0,31.0,29.06,SSE,157,5.1,10.7,38,0.00,,,99.99,Rainwise IP-100,2013-05-13 16:16:00,
2013-05-13 11:21:00,55.4,32.0,29.07,SSE,157,2.6,7.2,41,0.00,,,99.99,Rainwise IP-100,2013-05-13 16:21:00,
2013-05-13 11:26:00,54.6,33.0,29.07,SSE,157,6.8,7.5,44,0.00,,,99.99,Rainwise IP-100,2013-05-13 16:26:00,
2013-05-13 11:31:00,54.4,33.0,29.06,SE,135,9.1,9.1,44,0.00,,,99.99,Rainwise IP-100,2013-05-13 16:31:00,
2013-05-13 11:36:00,54.3,35.0,29.06,South,180,1.9,9.1,46,0.00,,,99.99,Rainwise IP-100,2013-05-13 16:36:00,
2013-05-13 11:41:00,54.1,35.0,29.06,SSE,157,6.1,7.2,48,0.00,,,99.99,Rainwise IP-100,2013-05-13 16:41:00,
2013-05-13 11:46:00,54.2,35.0,29.06,SE,135,6.3,8.2,48,0.00,,,99.99,Rainwise IP-100,2013-05-13 16:46:00,
2013-05-13 11:51:00,54.3,35.0,29.05,SSE,157,6.3,8.2,47,0.00,,,99.99,Rainwise IP-100,2013-05-13 16:51:00,
2013-05-13 11:56:00,54.3,36.0,29.04,SE,135,8.6,8.9,48,0.00,,,99.99,Rainwise IP-100,2013-05-13 16:56:00,
2013-05-13 12:01:00,54.3,36.0,29.03,SSE,157,7.9,11.0,49,0.00,,,99.99,Rainwise IP-100,2013-05-13 17:01:00,
2013-05-13 12:06:00,54.4,37.0,29.02,SE,135,10.3,11.4,50,0.00,,,99.99,Rainwise IP-100,2013-05-13 17:06:00,
2013-05-13 12:11:00,54.9,37.0,29.02,SE,135,14.5,14.5,49,0.00,,,99.99,Rainwise IP-100,2013-05-13 17:11:00,
2013-05-13 12:16:00,55.5,36.0,29.01,SE,135,14.2,20.5,46,0.00,,,99.99,Rainwise IP-100,2013-05-13 17:16:00,
2013-05-13 12:21:00,55.7,36.0,29.02,SE,135,9.3,17.3,46,0.00,,,99.99,Rainwise IP-100,2013-05-13 17:21:00,
2013-05-13 12:26:00,55.5,36.0,29.03,SE,135,11.2,13.5,46,15.36,,,99.99,Rainwise IP-100,2013-05-13 17:26:00,
2013-05-13 12:31:00,55.8,35.0,29.00,SE,135,11.7,18.2,45,61.44,,,99.99,Rainwise IP-100,2013-05-13 17:31:00,
2013-05-13 12:36:00,56.1,35.0,29.01,SE,135,9.6,14.5,44,46.08,,,99.99,Rainwise IP-100,2013-05-13 17:36:00,
2013-05-13 12:41:00,56.2,35.0,29.02,South,180,6.5,14.2,44,0.00,,,99.99,Rainwise IP-100,2013-05-13 17:41:00,
2013-05-13 12:46:00,56.3,35.0,29.02,SE,135,8.6,9.8,44,0.00,,,99.99,Rainwise IP-100,2013-05-13 17:46:00,
2013-05-13 12:51:00,56.6,35.0,29.01,SSE,157,10.3,13.3,43,0.00,,,99.99,Rainwise IP-100,2013-05-13 17:51:00,
2013-05-13 12:56:00,57.0,35.0,29.00,SE,135,10.5,15.6,42,0.00,,,99.99,Rainwise IP-100,2013-05-13 17:56:00,
2013-05-13 13:01:00,57.0,35.0,29.00,SE,135,13.3,18.7,42,30.72,,,99.99,Rainwise IP-100,2013-05-13 18:01:00,
2013-05-13 13:06:00,57.0,35.0,29.00,SE,135,15.6,16.8,43,30.72,,,99.99,Rainwise IP-100,2013-05-13 18:06:00,
2013-05-13 13:11:00,57.1,35.0,28.99,SE,135,14.5,18.7,43,0.00,,,99.99,Rainwise IP-100,2013-05-13 18:11:00,
2013-05-13 13:16:00,57.5,36.0,28.98,SE,135,20.5,22.6,43,0.00,,,99.99,Rainwise IP-100,2013-05-13 18:16:00,
2013-05-13 13:21:00,57.8,36.0,28.98,SE,135,19.1,21.5,42,30.72,,,99.99,Rainwise IP-100,2013-05-13 18:21:00,
2013-05-13 13:26:00,58.2,36.0,28.98,SE,135,11.2,24.0,42,61.44,,,99.99,Rainwise IP-100,2013-05-13 18:26:00,
2013-05-13 13:31:00,58.5,36.0,28.97,SE,135,14.0,16.8,42,30.72,,,99.99,Rainwise IP-100,2013-05-13 18:31:00,
2013-05-13 13:36:00,58.8,36.0,28.97,SE,135,14.2,26.8,41,0.00,,,99.99,Rainwise IP-100,2013-05-13 18:36:00,
2013-05-13 13:41:00,58.9,36.0,28.96,SE,135,22.6,25.4,42,30.72,,,99.99,Rainwise IP-100,2013-05-13 18:41:00,
2013-05-13 13:46:00,58.9,36.0,28.94,SE,135,15.6,23.3,42,46.08,,,99.99,Rainwise IP-100,2013-05-13 18:46:00,
2013-05-13 13:51:00,59.2,36.0,28.95,SE,135,10.3,21.0,42,30.72,,,99.99,Rainwise IP-100,2013-05-13 18:51:00,
2013-05-13 13:56:00,59.1,37.0,28.95,SSE,157,12.8,22.2,43,46.08,,,99.99,Rainwise IP-100,2013-05-13 18:56:00,
2013-05-13 14:01:00,59.3,37.0,28.95,SE,135,13.8,15.4,44,30.72,,,99.99,Rainwise IP-100,2013-05-13 19:01:00,
2013-05-13 14:06:00,60.0,37.0,28.96,NNE,22,1.9,15.4,43,0.00,,,99.99,Rainwise IP-100,2013-05-13 19:06:00,
2013-05-13 14:11:00,60.8,38.0,28.95,SE,135,6.1,13.1,42,0.00,,,99.99,Rainwise IP-100,2013-05-13 19:11:00,
2013-05-13 14:16:00,61.3,38.0,28.95,South,180,15.4,15.4,41,0.00,,,99.99,Rainwise IP-100,2013-05-13 19:16:00,
2013-05-13 14:21:00,61.3,38.0,28.95,South,180,14.2,16.6,41,0.00,,,99.99,Rainwise IP-100,2013-05-13 19:21:00,
2013-05-13 14:26:00,61.2,37.0,28.94,East,90,2.8,18.9,41,0.00,,,99.99,Rainwise IP-100,2013-05-13 19:26:00,
2013-05-13 14:31:00,61.8,38.0,28.94,WNW,292,4.0,18.9,41,0.00,,,99.99,Rainwise IP-100,2013-05-13 19:31:00,
2013-05-13 14:36:00,62.6,38.0,28.93,SSE,157,2.1,10.0,40,0.00,,,99.99,Rainwise IP-100,2013-05-13 19:36:00,
2013-05-13 14:41:00,62.8,38.0,28.93,SSE,157,7.2,13.5,40,0.00,,,99.99,Rainwise IP-100,2013-05-13 19:41:00,
2013-05-13 14:46:00,62.8,38.0,28.93,North,360,3.0,17.5,40,0.00,,,99.99,Rainwise IP-100,2013-05-13 19:46:00,
2013-05-13 14:51:00,62.9,38.0,28.94,WSW,247,2.3,12.4,40,0.00,,,99.99,Rainwise IP-100,2013-05-13 19:51:00,
2013-05-13 14:56:00,63.2,38.0,28.94,ESE,112,3.0,14.0,39,0.00,,,99.99,Rainwise IP-100,2013-05-13 19:56:00,
2013-05-13 15:01:00,63.3,38.0,28.93,ENE,67,1.9,13.3,39,0.00,,,99.99,Rainwise IP-100,2013-05-13 20:01:00,
2013-05-13 15:06:00,63.3,38.0,28.93,WSW,247,4.2,16.1,39,0.00,,,99.99,Rainwise IP-100,2013-05-13 20:06:00,
2013-05-13 15:11:00,63.4,38.0,28.92,East,90,3.0,15.2,39,0.00,,,99.99,Rainwise IP-100,2013-05-13 20:11:00,
2013-05-13 15:16:00,63.6,37.0,28.92,SE,135,12.6,19.8,38,0.00,,,99.99,Rainwise IP-100,2013-05-13 20:16:00,
2013-05-13 15:21:00,63.2,38.0,28.91,SSE,157,12.4,19.1,40,0.00,,,99.99,Rainwise IP-100,2013-05-13 20:21:00,
2013-05-13 15:26:00,63.3,39.0,28.91,SSE,157,8.6,17.3,40,0.00,,,99.99,Rainwise IP-100,2013-05-13 20:26:00,
2013-05-13 15:31:00,64.0,38.0,28.91,SE,135,17.5,17.5,38,0.00,,,99.99,Rainwise IP-100,2013-05-13 20:31:00,
2013-05-13 15:36:00,64.2,38.0,28.92,SSE,157,5.8,17.5,38,0.00,,,99.99,Rainwise IP-100,2013-05-13 20:36:00,
2013-05-13 15:41:00,64.1,38.0,28.90,SSE,157,9.8,19.4,38,0.00,,,99.99,Rainwise IP-100,2013-05-13 20:41:00,
2013-05-13 15:46:00,64.0,38.0,28.89,SSE,157,1.6,22.9,39,15.36,,,99.99,Rainwise IP-100,2013-05-13 20:46:00,
2013-05-13 15:51:00,64.3,39.0,28.90,SSE,157,3.0,14.5,39,15.36,,,99.99,Rainwise IP-100,2013-05-13 20:51:00,
2013-05-13 15:56:00,64.6,39.0,28.90,SSE,157,6.5,15.9,39,15.36,,,99.99,Rainwise IP-100,2013-05-13 20:56:00,
2013-05-13 16:01:00,64.9,39.0,28.89,NNE,22,1.9,12.1,39,15.36,,,99.99,Rainwise IP-100,2013-05-13 21:01:00,
2013-05-13 16:06:00,65.2,39.0,28.89,SE,135,8.9,18.7,39,0.00,,,99.99,Rainwise IP-100,2013-05-13 21:06:00,
2013-05-13 16:11:00,65.4,39.0,28.89,SSE,157,5.8,12.8,38,0.00,,,99.99,Rainwise IP-100,2013-05-13 21:11:00,
2013-05-13 16:16:00,65.4,40.0,28.89,ESE,112,4.0,14.0,39,0.00,,,99.99,Rainwise IP-100,2013-05-13 21:16:00,
2013-05-13 16:21:00,65.5,40.0,28.89,North,360,2.1,18.4,39,0.00,,,99.99,Rainwise IP-100,2013-05-13 21:21:00,
2013-05-13 16:26:00,65.6,40.0,28.87,SE,135,7.0,19.8,39,0.00,,,99.99,Rainwise IP-100,2013-05-13 21:26:00,
2013-05-13 16:31:00,65.5,40.0,28.86,SSE,157,10.3,20.8,39,15.36,,,99.99,Rainwise IP-100,2013-05-13 21:31:00,
2013-05-13 16:36:00,65.9,40.0,28.86,SW,225,3.7,18.2,39,15.36,,,99.99,Rainwise IP-100,2013-05-13 21:36:00,
2013-05-13 16:41:00,66.3,40.0,28.86,SE,135,6.5,16.8,39,0.00,,,99.99,Rainwise IP-100,2013-05-13 21:41:00,
2013-05-13 16:46:00,66.2,40.0,28.86,South,180,2.8,19.8,39,0.00,,,99.99,Rainwise IP-100,2013-05-13 21:46:00,
2013-05-13 16:51:00,66.0,41.0,28.86,SE,135,8.9,21.0,40,15.36,,,99.99,Rainwise IP-100,2013-05-13 21:51:00,
2013-05-13 16:56:00,66.5,41.0,28.85,SSE,157,11.9,16.1,40,15.36,,,99.99,Rainwise IP-100,2013-05-13 21:56:00,
2013-05-13 17:01:00,66.6,41.0,28.85,SE,135,9.8,19.1,40,15.36,,,99.99,Rainwise IP-100,2013-05-13 22:01:00,
2013-05-13 17:06:00,66.6,41.0,28.85,South,180,11.4,15.4,40,15.36,,,99.99,Rainwise IP-100,2013-05-13 22:06:00,
2013-05-13 17:11:00,66.6,41.0,28.84,SE,135,17.5,18.7,40,0.00,,,99.99,Rainwise IP-100,2013-05-13 22:11:00,
2013-05-13 17:16:00,66.0,41.0,28.83,SE,135,19.1,21.2,41,0.00,,,99.99,Rainwise IP-100,2013-05-13 22:16:00,
2013-05-13 17:21:00,66.1,41.0,28.83,SSE,157,16.8,20.1,41,0.00,,,99.99,Rainwise IP-100,2013-05-13 22:21:00,
2013-05-13 17:26:00,66.6,42.0,28.83,SE,135,7.5,18.2,41,0.00,,,99.99,Rainwise IP-100,2013-05-13 22:26:00,
2013-05-13 17:31:00,66.6,42.0,28.83,SSE,157,12.4,24.7,41,15.36,,,99.99,Rainwise IP-100,2013-05-13 22:31:00,
2013-05-13 17:36:00,66.6,42.0,28.83,SE,135,15.6,15.9,41,15.36,,,99.99,Rainwise IP-100,2013-05-13 22:36:00,
2013-05-13 17:41:00,67.0,42.0,28.83,SE,135,13.5,18.7,41,0.00,,,99.99,Rainwise IP-100,2013-05-13 22:41:00,
2013-05-13 17:46:00,67.5,43.0,28.82,SE,135,6.1,14.5,41,0.00,,,99.99,Rainwise IP-100,2013-05-13 22:46:00,
2013-05-13 17:51:00,67.7,43.0,28.81,SE,135,13.8,14.9,41,0.00,,,99.99,Rainwise IP-100,2013-05-13 22:51:00,
2013-05-13 17:56:00,67.5,43.0,28.81,SE,135,14.0,17.0,41,15.36,,,99.99,Rainwise IP-100,2013-05-13 22:56:00,
2013-05-13 18:01:00,66.9,43.0,28.81,SE,135,16.3,22.4,42,30.72,,,99.99,Rainwise IP-100,2013-05-13 23:01:00,
2013-05-13 18:06:00,67.2,43.0,28.81,SE,135,11.7,18.9,42,61.44,,,99.99,Rainwise IP-100,2013-05-13 23:06:00,
2013-05-13 18:11:00,67.5,44.0,28.80,SE,135,11.4,15.9,42,61.44,,,99.99,Rainwise IP-100,2013-05-13 23:11:00,
2013-05-13 18:16:00,67.4,44.0,28.79,SE,135,17.3,23.6,43,99.99,,,99.99,Rainwise IP-100,2013-05-13 23:16:00,
2013-05-13 18:21:00,67.4,44.0,28.79,SE,135,14.9,26.1,43,99.99,,,99.99,Rainwise IP-100,2013-05-13 23:21:00,
2013-05-13 18:26:00,67.5,44.0,28.79,ESE,112,4.2,15.9,43,99.99,,,99.99,Rainwise IP-100,2013-05-13 23:26:00,
2013-05-13 18:31:00,68.2,45.0,28.79,SE,135,10.7,15.9,43,46.08,,,99.99,Rainwise IP-100,2013-05-13 23:31:00,
2013-05-13 18:36:00,68.4,45.0,28.78,SE,135,14.0,18.9,43,15.36,,,99.99,Rainwise IP-100,2013-05-13 23:36:00,
2013-05-13 18:41:00,68.5,44.0,28.78,SE,135,11.7,15.6,42,15.36,,,99.99,Rainwise IP-100,2013-05-13 23:41:00,
2013-05-13 18:46:00,68.3,45.0,28.78,SE,135,10.3,15.6,43,15.36,,,99.99,Rainwise IP-100,2013-05-13 23:46:00,
2013-05-13 18:51:00,68.2,45.0,28.78,SE,135,14.0,17.0,43,30.72,,,99.99,Rainwise IP-100,2013-05-13 23:51:00,
2013-05-13 18:56:00,68.7,45.0,28.78,SE,135,11.0,16.3,43,61.44,,,99.99,Rainwise IP-100,2013-05-13 23:56:00,
2013-05-13 19:01:00,68.3,45.0,28.77,SSE,157,10.0,14.9,43,61.44,,,99.99,Rainwise IP-100,2013-05-14 00:01:00,
2013-05-13 19:06:00,67.8,46.0,28.77,SSE,157,8.9,12.4,45,30.72,,,99.99,Rainwise IP-100,2013-05-14 00:06:00,
2013-05-13 19:11:00,67.7,46.0,28.78,SSE,157,9.8,11.9,45,15.36,,,99.99,Rainwise IP-100,2013-05-14 00:11:00,
2013-05-13 19:16:00,67.7,46.0,28.77,SSE,157,9.3,10.5,45,15.36,,,99.99,Rainwise IP-100,2013-05-14 00:16:00,
2013-05-13 19:21:00,67.6,46.0,28.77,SE,135,7.2,11.2,46,0.00,,,99.99,Rainwise IP-100,2013-05-14 00:21:00,
2013-05-13 19:26:00,67.5,46.0,28.77,SSE,157,3.3,10.5,46,0.00,,,99.99,Rainwise IP-100,2013-05-14 00:26:00,
2013-05-13 19:31:00,67.6,46.0,28.76,SSE,157,3.5,7.7,46,15.36,,,99.99,Rainwise IP-100,2013-05-14 00:31:00,
2013-05-13 19:36:00,67.1,46.0,28.76,SE,135,8.9,16.1,47,15.36,,,99.99,Rainwise IP-100,2013-05-14 00:36:00,
2013-05-13 19:41:00,66.1,46.0,28.76,SE,135,7.0,11.0,48,0.00,,,99.99,Rainwise IP-100,2013-05-14 00:41:00,
2013-05-13 19:46:00,65.7,46.0,28.75,SE,135,9.6,12.8,49,0.00,,,99.99,Rainwise IP-100,2013-05-14 00:46:00,
2013-05-13 19:51:00,66.1,46.0,28.75,SE,135,12.6,14.5,49,15.36,,,99.99,Rainwise IP-100,2013-05-14 00:51:00,
2013-05-13 19:56:00,66.3,46.0,28.75,SE,135,9.3,13.3,48,15.36,,,99.99,Rainwise IP-100,2013-05-14 00:56:00,
2013-05-13 20:01:00,66.1,46.0,28.75,SE,135,10.7,12.6,49,15.36,,,99.99,Rainwise IP-100,2013-05-14 01:01:00,
2013-05-13 20:06:00,66.0,47.0,28.74,SE,135,14.2,14.2,50,92.16,,,99.99,Rainwise IP-100,2013-05-14 01:06:00,
2013-05-13 20:11:00,66.2,47.0,28.74,SE,135,10.5,16.8,49,99.99,,,99.99,Rainwise IP-100,2013-05-14 01:11:00,
2013-05-13 20:16:00,66.2,47.0,28.74,SE,135,7.9,14.5,49,30.72,,,99.99,Rainwise IP-100,2013-05-14 01:16:00,
2013-05-13 20:21:00,65.4,47.0,28.74,SSE,157,6.1,13.3,50,0.00,,,99.99,Rainwise IP-100,2013-05-14 01:21:00,
2013-05-13 20:26:00,64.6,47.0,28.74,SE,135,7.5,7.9,52,0.00,,,99.99,Rainwise IP-100,2013-05-14 01:26:00,
2013-05-13 20:31:00,64.5,47.0,28.74,SE,135,9.1,11.9,53,15.36,,,99.99,Rainwise IP-100,2013-05-14 01:31:00,
2013-05-13 20:36:00,64.7,47.0,28.74,SE,135,6.1,11.4,53,15.36,,,99.99,Rainwise IP-100,2013-05-14 01:36:00,
2013-05-13 20:41:00,64.2,47.0,28.74,SSE,157,2.3,7.9,54,0.00,,,99.99,Rainwise IP-100,2013-05-14 01:41:00,
2013-05-13 20:46:00,63.9,47.0,28.74,SSE,157,6.3,6.8,54,0.00,,,99.99,Rainwise IP-100,2013-05-14 01:46:00,
2013-05-13 20:51:00,64.4,47.5,28.73,SE,135,5.1,7.0,54,0.00,,,99.99,Rainwise IP-100,2013-05-14 01:51:00,
2013-05-13 20:56:00,64.3,47.5,28.73,SSE,157,4.7,5.8,54,0.00,,,99.99,Rainwise IP-100,2013-05-14 01:56:00,
2013-05-13 21:01:00,63.7,47.0,28.74,SSE,157,2.6,6.8,55,15.36,,,99.99,Rainwise IP-100,2013-05-14 02:01:00,
2013-05-13 21:02:00,63.6,47.0,28.74,SSE,157,2.3,6.8,55,15.36,,,99.99,Rainwise IP-100,2013-05-14 02:02:00,
2013-05-13 21:07:00,63.7,47.0,28.73,SSE,157,1.4,8.4,55,46.08,,,99.99,Rainwise IP-100,2013-05-14 02:07:00,
2013-05-13 21:12:00,64.6,47.5,28.74,SE,135,3.0,6.5,54,99.99,,,99.99,Rainwise IP-100,2013-05-14 02:12:00,
2013-05-13 21:17:00,65.4,47.5,28.73,SE,135,5.1,8.9,53,99.99,,,99.99,Rainwise IP-100,2013-05-14 02:17:00,
2013-05-13 21:22:00,66.2,47.5,28.73,SE,135,3.5,7.5,51,99.99,,,99.99,Rainwise IP-100,2013-05-14 02:22:00,
2013-05-13 21:27:00,67.0,48.0,28.73,South,180,1.9,10.0,50,99.99,,,99.99,Rainwise IP-100,2013-05-14 02:27:00,
2013-05-13 21:32:00,67.1,47.5,28.73,SE,135,1.6,8.2,49,99.99,,,99.99,Rainwise IP-100,2013-05-14 02:32:00,
2013-05-13 21:37:00,66.9,48.0,28.73,SSE,157,4.2,7.5,50,99.99,,,99.99,Rainwise IP-100,2013-05-14 02:37:00,
2013-05-13 21:42:00,66.9,48.0,28.73,ESE,112,1.4,9.1,50,99.99,,,99.99,Rainwise IP-100,2013-05-14 02:42:00,
2013-05-13 21:47:00,66.7,47.5,28.72,SSE,157,5.6,10.5,50,99.99,,,99.99,Rainwise IP-100,2013-05-14 02:47:00,
2013-05-13 21:52:00,66.9,48.0,28.72,SE,135,4.7,8.4,50,99.99,,,99.99,Rainwise IP-100,2013-05-14 02:52:00,
2013-05-13 21:57:00,67.1,47.5,28.72,SSE,157,3.7,9.1,49,30.72,,,99.99,Rainwise IP-100,2013-05-14 02:57:00,
2013-05-13 22:02:00,66.8,47.5,28.72,SSE,157,1.9,10.0,50,99.99,,,99.99,Rainwise IP-100,2013-05-14 03:02:00,
2013-05-13 22:07:00,66.4,47.5,28.72,South,180,4.7,10.0,50,99.99,,,99.99,Rainwise IP-100,2013-05-14 03:07:00,
2013-05-13 22:12:00,66.2,47.5,28.72,SSE,157,1.4,10.0,51,99.99,,,99.99,Rainwise IP-100,2013-05-14 03:12:00,
2013-05-13 22:17:00,66.1,47.5,28.72,SSE,157,4.0,9.8,51,99.99,,,99.99,Rainwise IP-100,2013-05-14 03:17:00,
2013-05-13 22:22:00,65.8,47.5,28.72,North,360,0.0,10.0,52,99.99,,,0.00,Rainwise IP-100,2013-05-14 03:22:00,
2013-05-13 22:27:00,65.4,47.5,28.72,WNW,292,1.6,9.6,52,99.99,,,51.20,Rainwise IP-100,2013-05-14 03:27:00,
2013-05-13 22:32:00,65.4,47.5,28.71,NNE,22,1.4,9.3,53,99.99,,,66.56,Rainwise IP-100,2013-05-14 03:32:00,
2013-05-13 22:37:00,65.6,47.5,28.72,SSE,157,3.0,11.2,53,99.99,,,99.99,Rainwise IP-100,2013-05-14 03:37:00,
2013-05-13 22:42:00,66.0,47.5,28.72,SSE,157,0.0,12.6,52,99.99,,,99.99,Rainwise IP-100,2013-05-14 03:42:00,
2013-05-13 22:47:00,66.5,48.0,28.72,SE,135,1.2,15.2,52,99.99,,,99.99,Rainwise IP-100,2013-05-14 03:47:00,
2013-05-13 22:52:00,66.4,48.0,28.71,SE,135,1.2,13.8,52,5.12,,,99.99,Rainwise IP-100,2013-05-14 03:52:00,
2013-05-13 22:57:00,66.2,48.0,28.71,East,90,1.2,12.8,52,99.99,,,99.99,Rainwise IP-100,2013-05-14 03:57:00,
2013-05-13 23:01:00,66.1,47.5,28.72,SSE,157,2.8,12.1,52,74.90,,,99.99,Rainwise IP-100,2013-05-14 04:01:00,
2013-05-13 23:06:00,66.1,48.0,28.72,SSE,157,0.0,11.4,53,99.99,,,99.99,Rainwise IP-100,2013-05-14 04:06:00,
2013-05-13 23:11:00,65.7,47.5,28.71,SE,135,0.0,12.4,53,81.92,,,99.99,Rainwise IP-100,2013-05-14 04:11:00,
2013-05-13 23:16:00,65.4,48.0,28.72,ESE,112,0.0,10.3,54,99.99,,,99.99,Rainwise IP-100,2013-05-14 04:16:00,
2013-05-13 23:21:00,65.4,48.0,28.72,SE,135,0.0,8.9,54,99.99,,,99.99,Rainwise IP-100,2013-05-14 04:21:00,
2013-05-13 23:26:00,65.3,48.0,28.72,SW,225,0.0,7.0,54,99.99,,,99.99,Rainwise IP-100,2013-05-14 04:26:00,
2013-05-13 23:31:00,65.4,48.0,28.72,WSW,247,2.8,7.2,54,99.99,,,99.99,Rainwise IP-100,2013-05-14 04:31:00,
2013-05-13 23:36:00,65.9,48.0,28.72,WSW,247,4.0,7.9,53,99.99,,,99.99,Rainwise IP-100,2013-05-14 04:36:00,
2013-05-13 23:41:00,66.4,48.0,28.72,SW,225,1.2,7.5,53,61.44,,,99.99,Rainwise IP-100,2013-05-14 04:41:00,
2013-05-13 23:46:00,66.3,48.0,28.72,NW,315,0.0,5.4,53,99.99,,,99.99,Rainwise IP-100,2013-05-14 04:46:00,
2013-05-13 23:51:00,66.1,48.0,28.72,SSE,157,0.0,5.1,53,99.99,,,2.56,Rainwise IP-100,2013-05-14 04:51:00,
2013-05-13 23:56:00,65.7,47.5,28.72,SSE,157,2.1,2.1,53,30.72,,,2.56,Rainwise IP-100,2013-05-14 04:56:00,